Location: �terpigny
(49.8910°N, 2.9249°E)
Time: 19:32:27
(UTC+00:00)

Cosmos 1697 Rocket - Pass Details

Date: 24 October 2021
Orbit: 834 x 842 km, 71.0° (Epoch: 07 December)

Event Time Altitude Azimuth Distance (km) Brightness Sun altitude
Rises 17:08:21 0° 224° (SW) 3,387 6.9 -5.3°
Reaches altitude 10° 17:10:52 10° 230° (SW) 2,456 6.3 -5.7°
Maximum altitude 17:16:21 51° 306° (NW) 1,052 3.6 -6.6°
Drops below altitude 10° 17:21:51 10° 22° (NNE) 2,465 4.8 -7.5°
Sets 17:24:23 0° 28° (NNE) 3,402 5.5 -7.9°
